Time,TemperatureF,DewpointF,PressureIn,WindDirection,WindDirectionDegrees,WindSpeedMPH,WindSpeedGustMPH,Humidity,HourlyPrecipIn,Conditions,Clouds,dailyrainin,SoftwareType,DateUTC
2013-02-06 00:01:00,39.0,25.0,29.91,ENE,70,2.0,11.0,58,0.00,,,0.00,,2013-02-06 06:01:00,
2013-02-06 00:11:00,39.0,25.0,29.91,ENE,70,2.0,11.0,58,0.00,,,0.00,,2013-02-06 06:11:00,
2013-02-06 00:21:00,39.0,26.0,29.90,North,11,1.0,4.0,60,0.00,,,0.00,,2013-02-06 06:21:00,
2013-02-06 00:32:00,39.0,26.0,29.90,North,11,1.0,4.0,60,0.00,,,0.00,,2013-02-06 06:32:00,
2013-02-06 00:42:00,39.0,26.0,29.90,North,11,1.0,4.0,60,0.00,,,0.00,,2013-02-06 06:42:00,
2013-02-06 00:51:00,38.0,27.0,29.89,NE,34,1.0,5.0,63,0.00,,,0.00,,2013-02-06 06:51:00,
2013-02-06 01:01:00,38.0,27.0,29.90,ESE,115,1.0,6.0,64,0.00,,,0.00,,2013-02-06 07:01:00,
2013-02-06 01:11:00,38.0,27.0,29.90,ESE,115,1.0,6.0,64,0.00,,,0.00,,2013-02-06 07:11:00,
2013-02-06 01:21:00,37.0,27.0,29.89,North,5,0.0,2.0,66,0.00,,,0.00,,2013-02-06 07:21:00,
2013-02-06 01:32:00,37.0,27.0,29.89,NNE,19,0.0,3.0,68,0.00,,,0.00,,2013-02-06 07:32:00,
2013-02-06 01:41:00,37.0,27.0,29.89,NNE,19,0.0,3.0,68,0.00,,,0.00,,2013-02-06 07:41:00,
2013-02-06 01:51:00,36.0,27.0,29.88,NNE,24,0.0,2.0,69,0.00,,,0.00,,2013-02-06 07:51:00,
2013-02-06 02:01:00,36.0,27.0,29.88,NNE,21,1.0,7.0,70,0.00,,,0.00,,2013-02-06 08:01:00,
2013-02-06 02:11:00,36.0,27.0,29.88,NNE,21,1.0,7.0,70,0.00,,,0.00,,2013-02-06 08:11:00,
2013-02-06 02:21:00,37.0,28.0,29.88,North,355,1.0,5.0,70,0.00,,,0.00,,2013-02-06 08:21:00,
2013-02-06 02:31:00,37.0,28.0,29.87,NE,45,2.0,8.0,70,0.00,,,0.00,,2013-02-06 08:31:00,
2013-02-06 02:41:00,37.0,28.0,29.87,NE,45,2.0,8.0,70,0.00,,,0.00,,2013-02-06 08:41:00,
2013-02-06 02:53:00,37.0,28.0,29.86,SE,143,2.0,8.0,69,0.00,,,0.00,,2013-02-06 08:53:00,
2013-02-06 03:01:00,37.0,28.0,29.86,NNE,20,1.0,5.0,70,0.00,,,0.00,,2013-02-06 09:01:00,
2013-02-06 03:11:00,37.0,28.0,29.86,NNE,20,1.0,5.0,70,0.00,,,0.00,,2013-02-06 09:11:00,
2013-02-06 03:21:00,37.0,28.0,29.86,NNE,24,0.0,7.0,70,0.00,,,0.00,,2013-02-06 09:21:00,
2013-02-06 03:31:00,37.0,28.0,29.85,North,355,0.0,4.0,70,0.00,,,0.00,,2013-02-06 09:31:00,
2013-02-06 03:41:00,37.0,28.0,29.85,North,355,0.0,4.0,70,0.00,,,0.00,,2013-02-06 09:41:00,
2013-02-06 03:51:00,38.0,28.0,29.85,SSE,151,2.0,13.0,68,0.00,,,0.00,,2013-02-06 09:51:00,
2013-02-06 04:01:00,38.0,28.0,29.85,SSE,151,2.0,13.0,68,0.00,,,0.00,,2013-02-06 10:01:00,
2013-02-06 04:11:00,38.0,28.0,29.85,SSE,151,2.0,13.0,68,0.00,,,0.00,,2013-02-06 10:11:00,
2013-02-06 04:21:00,38.0,27.0,29.84,SSE,148,2.0,4.0,65,0.00,,,0.00,,2013-02-06 10:21:00,
2013-02-06 04:31:00,38.0,27.0,29.83,SSE,147,1.0,4.0,65,0.00,,,0.00,,2013-02-06 10:31:00,
2013-02-06 04:42:00,38.0,27.0,29.83,SSE,147,1.0,4.0,65,0.00,,,0.00,,2013-02-06 10:42:00,
2013-02-06 04:51:00,38.0,27.0,29.83,SE,134,1.0,5.0,65,0.00,,,0.00,,2013-02-06 10:51:00,
2013-02-06 05:01:00,38.0,27.0,29.82,NNW,343,1.0,4.0,65,0.00,,,0.00,,2013-02-06 11:01:00,
2013-02-06 05:11:00,38.0,27.0,29.82,NNW,343,1.0,4.0,65,0.00,,,0.00,,2013-02-06 11:11:00,
2013-02-06 05:22:00,37.0,26.0,29.81,North,355,1.0,3.0,65,0.00,,,0.00,,2013-02-06 11:22:00,
2013-02-06 05:32:00,37.0,27.0,29.81,SSE,152,0.0,4.0,66,0.00,,,0.00,,2013-02-06 11:32:00,
2013-02-06 05:42:00,37.0,27.0,29.81,SSE,152,0.0,4.0,66,0.00,,,0.00,,2013-02-06 11:42:00,
2013-02-06 05:52:00,37.0,27.0,29.80,SE,132,1.0,4.0,66,0.00,,,0.00,,2013-02-06 11:52:00,
2013-02-06 06:02:00,37.0,26.0,29.79,SE,135,1.0,5.0,64,0.00,,,0.00,,2013-02-06 12:02:00,
2013-02-06 06:12:00,37.0,26.0,29.79,SE,135,1.0,5.0,64,0.00,,,0.00,,2013-02-06 12:12:00,
2013-02-06 06:22:00,38.0,26.0,29.79,SSE,152,2.0,5.0,61,0.00,,,0.00,,2013-02-06 12:22:00,
2013-02-06 06:32:00,39.0,25.0,29.79,SSE,148,1.0,6.0,57,0.00,,,0.00,,2013-02-06 12:32:00,
2013-02-06 06:42:00,39.0,25.0,29.79,SSE,148,1.0,6.0,57,0.00,,,0.00,,2013-02-06 12:42:00,
2013-02-06 06:52:00,39.0,25.0,29.78,SE,142,1.0,5.0,56,0.00,,,0.00,,2013-02-06 12:52:00,
2013-02-06 07:01:00,40.0,25.0,29.78,SSW,196,3.0,7.0,54,0.00,,,0.00,,2013-02-06 13:01:00,
2013-02-06 07:12:00,40.0,25.0,29.78,SSW,196,3.0,7.0,54,0.00,,,0.00,,2013-02-06 13:12:00,
2013-02-06 07:22:00,39.0,24.0,29.78,NNE,22,2.0,4.0,55,0.00,,,0.00,,2013-02-06 13:22:00,
2013-02-06 07:32:00,38.0,25.0,29.78,NNE,32,0.0,3.0,58,0.00,,,0.00,,2013-02-06 13:32:00,
2013-02-06 07:42:00,38.0,25.0,29.78,NNE,32,0.0,3.0,58,0.00,,,0.00,,2013-02-06 13:42:00,
2013-02-06 07:52:00,37.0,24.0,29.77,ENE,64,0.0,4.0,59,0.00,,,0.00,,2013-02-06 13:52:00,
2013-02-06 08:02:00,36.0,24.0,29.76,ENE,61,0.0,5.0,61,0.00,,,0.00,,2013-02-06 14:02:00,
2013-02-06 08:11:00,36.0,24.0,29.76,ENE,61,0.0,5.0,61,0.00,,,0.00,,2013-02-06 14:11:00,
2013-02-06 08:22:00,36.0,24.0,29.76,North,355,1.0,6.0,62,0.00,,,0.00,,2013-02-06 14:22:00,
2013-02-06 08:32:00,36.0,24.0,29.77,NNE,19,0.0,3.0,62,0.00,,,0.00,,2013-02-06 14:32:00,
2013-02-06 08:42:00,36.0,24.0,29.77,NNE,19,0.0,3.0,62,0.00,,,0.00,,2013-02-06 14:42:00,
2013-02-06 08:52:00,36.0,24.0,29.78,NNE,19,0.0,3.0,62,0.00,,,0.00,,2013-02-06 14:52:00,
2013-02-06 09:01:00,38.0,25.0,29.78,NNE,31,1.0,6.0,58,0.00,,,0.00,,2013-02-06 15:01:00,
2013-02-06 09:11:00,38.0,25.0,29.78,NNE,31,1.0,6.0,58,0.00,,,0.00,,2013-02-06 15:11:00,
2013-02-06 09:21:00,40.0,25.0,29.78,NE,55,0.0,4.0,55,0.00,,,0.00,,2013-02-06 15:21:00,
2013-02-06 09:31:00,42.0,25.0,29.76,NE,50,1.0,5.0,51,0.00,,,0.00,,2013-02-06 15:31:00,
2013-02-06 09:41:00,42.0,25.0,29.76,NE,50,1.0,5.0,51,0.00,,,0.00,,2013-02-06 15:41:00,
2013-02-06 09:52:00,44.0,26.0,29.75,ENE,57,1.0,6.0,48,0.00,,,0.00,,2013-02-06 15:52:00,
2013-02-06 10:01:00,44.0,26.0,29.75,ENE,57,1.0,6.0,48,0.00,,,0.00,,2013-02-06 16:01:00,
2013-02-06 10:11:00,44.0,26.0,29.75,ENE,57,1.0,6.0,48,0.00,,,0.00,,2013-02-06 16:11:00,
2013-02-06 10:21:00,44.0,26.0,29.75,NE,51,0.0,3.0,49,0.00,,,0.00,,2013-02-06 16:21:00,
2013-02-06 10:32:00,45.0,26.0,29.75,SSW,211,2.0,6.0,47,0.00,,,0.00,,2013-02-06 16:32:00,
2013-02-06 10:42:00,45.0,26.0,29.75,SSW,211,2.0,6.0,47,0.00,,,0.00,,2013-02-06 16:42:00,
2013-02-06 10:52:00,45.0,25.0,29.76,SW,221,3.0,7.0,46,0.00,,,0.00,,2013-02-06 16:52:00,
2013-02-06 11:02:00,45.0,25.0,29.76,WSW,252,3.0,8.0,46,0.00,,,0.00,,2013-02-06 17:02:00,
2013-02-06 11:11:00,45.0,25.0,29.76,WSW,252,3.0,8.0,46,0.00,,,0.00,,2013-02-06 17:11:00,
2013-02-06 11:21:00,46.0,26.0,29.76,WSW,257,1.0,5.0,45,0.00,,,0.00,,2013-02-06 17:21:00,
2013-02-06 11:32:00,47.0,26.0,29.75,WSW,238,0.0,4.0,44,0.00,,,0.00,,2013-02-06 17:32:00,
2013-02-06 11:41:00,47.0,26.0,29.75,WSW,238,0.0,4.0,44,0.00,,,0.00,,2013-02-06 17:41:00,
2013-02-06 11:52:00,48.0,27.0,29.75,WSW,242,1.0,4.0,43,0.00,,,0.00,,2013-02-06 17:52:00,
2013-02-06 12:01:00,51.0,27.0,29.75,SSW,200,2.0,6.0,39,0.00,,,0.00,,2013-02-06 18:01:00,
2013-02-06 12:11:00,51.0,27.0,29.75,SSW,200,2.0,6.0,39,0.00,,,0.00,,2013-02-06 18:11:00,
2013-02-06 12:23:00,52.0,26.0,29.74,SSE,154,1.0,5.0,36,0.00,,,0.00,,2013-02-06 18:23:00,
2013-02-06 12:32:00,54.0,27.0,29.73,South,186,3.0,7.0,35,0.00,,,0.00,,2013-02-06 18:32:00,
2013-02-06 12:42:00,54.0,27.0,29.73,South,186,3.0,7.0,35,0.00,,,0.00,,2013-02-06 18:42:00,
2013-02-06 12:52:00,54.0,28.0,29.72,SSE,151,1.0,6.0,36,0.00,,,0.00,,2013-02-06 18:52:00,
2013-02-06 13:01:00,54.0,27.0,29.71,SE,145,0.0,6.0,35,0.00,,,0.00,,2013-02-06 19:01:00,
2013-02-06 13:11:00,54.0,27.0,29.71,SE,145,0.0,6.0,35,0.00,,,0.00,,2013-02-06 19:11:00,
2013-02-06 13:21:00,55.0,27.0,29.71,South,172,1.0,4.0,34,0.00,,,0.00,,2013-02-06 19:21:00,
2013-02-06 13:32:00,56.0,27.0,29.70,WSW,237,1.0,5.0,32,0.00,,,0.00,,2013-02-06 19:32:00,
2013-02-06 13:41:00,56.0,27.0,29.70,WSW,237,1.0,5.0,32,0.00,,,0.00,,2013-02-06 19:41:00,
2013-02-06 13:52:00,58.0,26.0,29.69,WSW,244,5.0,10.0,29,0.00,,,0.00,,2013-02-06 19:52:00,
2013-02-06 14:01:00,58.0,26.0,29.69,WSW,255,2.0,9.0,29,0.00,,,0.00,,2013-02-06 20:01:00,
2013-02-06 14:11:00,58.0,26.0,29.69,WSW,255,2.0,9.0,29,0.00,,,0.00,,2013-02-06 20:11:00,
2013-02-06 14:21:00,58.0,27.0,29.68,SSW,192,2.0,7.0,30,0.00,,,0.00,,2013-02-06 20:21:00,
2013-02-06 14:32:00,58.0,27.0,29.67,WSW,249,0.0,7.0,30,0.00,,,0.00,,2013-02-06 20:32:00,
2013-02-06 14:41:00,58.0,27.0,29.67,WSW,249,0.0,7.0,30,0.00,,,0.00,,2013-02-06 20:41:00,
2013-02-06 14:52:00,59.0,27.0,29.68,WSW,254,1.0,4.0,29,0.00,,,0.00,,2013-02-06 20:52:00,
2013-02-06 15:02:00,59.0,27.0,29.67,WSW,254,2.0,5.0,29,0.00,,,0.00,,2013-02-06 21:02:00,
2013-02-06 15:11:00,59.0,27.0,29.67,WSW,254,2.0,5.0,29,0.00,,,0.00,,2013-02-06 21:11:00,
2013-02-06 15:21:00,60.0,26.0,29.67,SW,234,4.0,6.0,27,0.00,,,0.00,,2013-02-06 21:21:00,
2013-02-06 15:32:00,60.0,24.0,29.67,South,186,3.0,8.0,25,0.00,,,0.00,,2013-02-06 21:32:00,
2013-02-06 15:41:00,60.0,24.0,29.67,South,186,3.0,8.0,25,0.00,,,0.00,,2013-02-06 21:41:00,
2013-02-06 15:51:00,61.0,24.0,29.67,NW,314,0.0,6.0,24,0.00,,,0.00,,2013-02-06 21:51:00,
2013-02-06 16:01:00,60.0,24.0,29.68,WSW,244,4.0,10.0,25,0.00,,,0.00,,2013-02-06 22:01:00,
2013-02-06 16:11:00,60.0,24.0,29.68,WSW,244,4.0,10.0,25,0.00,,,0.00,,2013-02-06 22:11:00,
2013-02-06 16:21:00,59.0,24.0,29.68,West,265,2.0,7.0,26,0.00,,,0.00,,2013-02-06 22:21:00,
2013-02-06 16:31:00,59.0,24.0,29.69,WSW,247,1.0,7.0,26,0.00,,,0.00,,2013-02-06 22:31:00,
2013-02-06 16:42:00,59.0,24.0,29.69,WSW,247,1.0,7.0,26,0.00,,,0.00,,2013-02-06 22:42:00,
2013-02-06 16:51:00,59.0,24.0,29.69,WSW,251,2.0,6.0,26,0.00,,,0.00,,2013-02-06 22:51:00,
2013-02-06 17:01:00,59.0,24.0,29.69,WSW,252,1.0,5.0,26,0.00,,,0.00,,2013-02-06 23:01:00,
2013-02-06 17:11:00,59.0,24.0,29.69,WSW,252,1.0,5.0,26,0.00,,,0.00,,2013-02-06 23:11:00,
2013-02-06 17:21:00,57.0,24.0,29.70,West,267,1.0,5.0,28,0.00,,,0.00,,2013-02-06 23:21:00,
2013-02-06 17:32:00,56.0,24.0,29.70,WSW,242,0.0,3.0,29,0.00,,,0.00,,2013-02-06 23:32:00,
2013-02-06 17:42:00,56.0,24.0,29.70,WSW,242,0.0,3.0,29,0.00,,,0.00,,2013-02-06 23:42:00,
2013-02-06 17:52:00,56.0,24.0,29.70,WSW,242,0.0,3.0,29,0.00,,,0.00,,2013-02-06 23:52:00,
2013-02-06 18:01:00,54.0,26.0,29.72,West,259,1.0,3.0,33,0.00,,,0.00,,2013-02-07 00:01:00,
2013-02-06 18:11:00,54.0,26.0,29.72,West,259,1.0,3.0,33,0.00,,,0.00,,2013-02-07 00:11:00,
2013-02-06 18:21:00,53.0,25.0,29.73,West,273,0.0,2.0,34,0.00,,,0.00,,2013-02-07 00:21:00,
2013-02-06 18:31:00,52.0,26.0,29.73,West,273,0.0,2.0,36,0.00,,,0.00,,2013-02-07 00:31:00,
2013-02-06 18:42:00,52.0,26.0,29.73,West,273,0.0,2.0,36,0.00,,,0.00,,2013-02-07 00:42:00,
2013-02-06 18:51:00,51.0,26.0,29.73,West,273,1.0,3.0,38,0.00,,,0.00,,2013-02-07 00:51:00,
2013-02-06 19:01:00,51.0,26.0,29.73,West,273,1.0,3.0,38,0.00,,,0.00,,2013-02-07 01:01:00,
2013-02-06 19:11:00,51.0,26.0,29.73,West,273,1.0,3.0,38,0.00,,,0.00,,2013-02-07 01:11:00,
2013-02-06 19:21:00,50.0,27.0,29.76,ESE,107,0.0,4.0,41,0.00,,,0.00,,2013-02-07 01:21:00,
2013-02-06 19:32:00,49.0,27.0,29.77,West,261,0.0,3.0,42,0.00,,,0.00,,2013-02-07 01:32:00,
2013-02-06 19:42:00,49.0,27.0,29.77,West,261,0.0,3.0,42,0.00,,,0.00,,2013-02-07 01:42:00,
2013-02-06 19:52:00,48.0,27.0,29.77,South,169,0.0,1.0,43,0.00,,,0.00,,2013-02-07 01:52:00,
2013-02-06 20:01:00,48.0,27.0,29.78,WSW,244,0.0,4.0,44,0.00,,,0.00,,2013-02-07 02:01:00,
2013-02-06 20:11:00,48.0,27.0,29.78,WSW,244,0.0,4.0,44,0.00,,,0.00,,2013-02-07 02:11:00,
2013-02-06 20:21:00,47.0,27.0,29.79,SE,146,1.0,6.0,45,0.00,,,0.00,,2013-02-07 02:21:00,
2013-02-06 20:32:00,47.0,27.0,29.79,SE,146,1.0,6.0,45,0.00,,,0.00,,2013-02-07 02:32:00,
2013-02-06 20:41:00,47.0,27.0,29.79,SE,146,1.0,6.0,45,0.00,,,0.00,,2013-02-07 02:41:00,
2013-02-06 20:51:00,47.0,27.0,29.79,SE,146,1.0,6.0,45,0.00,,,0.00,,2013-02-07 02:51:00,
2013-02-06 21:02:00,46.0,28.0,29.80,North,355,1.0,5.0,49,0.00,,,0.00,,2013-02-07 03:02:00,
2013-02-06 21:11:00,46.0,28.0,29.80,North,355,1.0,5.0,49,0.00,,,0.00,,2013-02-07 03:11:00,
2013-02-06 21:21:00,45.0,27.0,29.81,NNE,17,2.0,9.0,50,0.00,,,0.00,,2013-02-07 03:21:00,
2013-02-06 21:31:00,45.0,28.0,29.82,NNW,337,4.0,9.0,51,0.00,,,0.00,,2013-02-07 03:31:00,
2013-02-06 21:41:00,45.0,28.0,29.82,NNW,337,4.0,9.0,51,0.00,,,0.00,,2013-02-07 03:41:00,
2013-02-06 21:51:00,44.0,28.0,29.83,East,94,1.0,7.0,52,0.00,,,0.00,,2013-02-07 03:51:00,
2013-02-06 22:01:00,44.0,28.0,29.83,NNW,337,2.0,9.0,53,0.00,,,0.00,,2013-02-07 04:01:00,
2013-02-06 22:11:00,44.0,28.0,29.83,NNW,337,2.0,9.0,53,0.00,,,0.00,,2013-02-07 04:11:00,
2013-02-06 22:22:00,43.0,27.0,29.84,South,175,1.0,6.0,53,0.00,,,0.00,,2013-02-07 04:22:00,
2013-02-06 22:32:00,43.0,27.0,29.84,South,175,1.0,6.0,53,0.00,,,0.00,,2013-02-07 04:32:00,
2013-02-06 22:41:00,43.0,27.0,29.84,South,175,1.0,6.0,53,0.00,,,0.00,,2013-02-07 04:41:00,
2013-02-06 22:52:00,42.0,27.0,29.84,SW,221,1.0,7.0,55,0.00,,,0.00,,2013-02-07 04:52:00,
2013-02-06 23:02:00,42.0,27.0,29.84,SW,221,1.0,7.0,55,0.00,,,0.00,,2013-02-07 05:02:00,
2013-02-06 23:12:00,42.0,27.0,29.84,SW,221,1.0,7.0,55,0.00,,,0.00,,2013-02-07 05:12:00,
2013-02-06 23:21:00,41.0,27.0,29.86,ENE,77,0.0,4.0,57,0.00,,,0.00,,2013-02-07 05:21:00,
2013-02-06 23:32:00,41.0,27.0,29.87,WNW,294,1.0,4.0,58,0.00,,,0.00,,2013-02-07 05:32:00,
2013-02-06 23:42:00,41.0,27.0,29.87,WNW,294,1.0,4.0,58,0.00,,,0.00,,2013-02-07 05:42:00,
2013-02-06 23:52:00,41.0,28.0,29.88,WSW,242,1.0,4.0,59,0.00,,,0.00,,2013-02-07 05:52:00,